Terminal Aerodrome Forecast
Issued by NWS

Home | Current Version | Previous Version | Text Only | Print | Product List | Glossary On
Versions: 1 2 3 4 5 6 7 8 9 10 11 12 13 14 15 16 17
000
FTUS45 KGJT 271120
TAFTEX
TAF
KTEX 271120Z 2712/2812 13003KT P6SM VCSH SCT110
     FM271700 24004KT P6SM VCTS BKN100CB
     FM272000 VRB15G25KT P6SM -TSRA BKN060CB OVC100
     FM280000 29008KT P6SM VCSH BKN060 OVC100
     FM280600 12002KT P6SM BKN120=

USA.gov is the U.S. government's official web portal to all federal, state and local government web resources and services.